TimeEEST,TemperatureF,Dew PointF,Humidity,Sea Level PressureIn,VisibilityMPH,Wind Direction,Wind SpeedMPH,Gust SpeedMPH,PrecipitationIn,Events,Conditions,WindDirDegrees,DateUTC
12:20 AM,75.2,62.6,65,29.86,-9999.0,West,10.4,-,N/A,,Clear,280,2013-08-05 21:20:00
12:50 AM,75.2,62.6,65,29.83,-9999.0,West,12.7,-,N/A,,Clear,280,2013-08-05 21:50:00
1:20 AM,75.2,62.6,65,29.83,-9999.0,West,12.7,-,N/A,,Clear,280,2013-08-05 22:20:00
2:20 AM,75.2,62.6,65,29.83,-9999.0,West,13.8,-,N/A,,Clear,280,2013-08-05 23:20:00
2:50 AM,75.2,62.6,65,29.83,-9999.0,West,12.7,-,N/A,,Clear,280,2013-08-05 23:50:00
3:50 AM,73.4,60.8,65,29.80,-9999.0,WNW,9.2,-,N/A,,Clear,300,2013-08-06 00:50:00
4:50 AM,73.4,60.8,65,29.80,-9999.0,West,12.7,-,N/A,,Clear,280,2013-08-06 01:50:00
5:20 AM,73.4,60.8,65,29.80,-9999.0,West,12.7,-,N/A,,Clear,280,2013-08-06 02:20:00
5:50 AM,73.4,60.8,65,29.80,-9999.0,WNW,8.1,-,N/A,,Clear,300,2013-08-06 02:50:00
6:50 AM,71.6,62.6,73,29.80,-9999.0,West,6.9,-,N/A,,Clear,280,2013-08-06 03:50:00
7:20 AM,73.4,62.6,69,29.80,-9999.0,NW,5.8,-,N/A,,Clear,320,2013-08-06 04:20:00
7:50 AM,75.2,62.6,65,29.80,-9999.0,WNW,6.9,-,N/A,,Clear,300,2013-08-06 04:50:00
8:20 AM,77.0,62.6,61,29.80,-9999.0,North,6.9,-,N/A,,Clear,350,2013-08-06 05:20:00
8:50 AM,77.0,62.6,61,29.80,-9999.0,North,13.8,-,N/A,,Clear,350,2013-08-06 05:50:00
9:20 AM,77.0,62.6,61,29.80,-9999.0,North,15.0,-,N/A,,Clear,350,2013-08-06 06:20:00
9:50 AM,78.8,62.6,57,29.80,-9999.0,North,17.3,-,N/A,,Clear,350,2013-08-06 06:50:00
10:20 AM,78.8,62.6,57,29.80,-9999.0,North,17.3,-,N/A,,Clear,350,2013-08-06 07:20:00
10:50 AM,78.8,64.4,61,29.80,-9999.0,North,18.4,-,N/A,,Clear,350,2013-08-06 07:50:00
11:50 AM,80.6,64.4,58,29.83,-9999.0,NNW,20.7,-,N/A,,Clear,340,2013-08-06 08:50:00
12:20 PM,80.6,64.4,58,29.83,-9999.0,NNW,20.7,-,N/A,,Clear,340,2013-08-06 09:20:00
12:50 PM,80.6,64.4,58,29.83,-9999.0,North,20.7,-,N/A,,Clear,350,2013-08-06 09:50:00
1:20 PM,80.6,64.4,58,29.83,-9999.0,North,20.7,-,N/A,,Clear,350,2013-08-06 10:20:00
1:50 PM,82.4,62.6,51,29.83,-9999.0,NNW,18.4,-,N/A,,Clear,340,2013-08-06 10:50:00
2:20 PM,82.4,62.6,51,29.83,-9999.0,NW,23.0,-,N/A,,Clear,320,2013-08-06 11:20:00
2:50 PM,82.4,60.8,48,29.80,-9999.0,NNW,24.2,-,N/A,,Clear,340,2013-08-06 11:50:00
3:20 PM,82.4,59.0,45,29.80,-9999.0,North,20.7,-,N/A,,Clear,350,2013-08-06 12:20:00
3:50 PM,82.4,62.6,51,29.80,-9999.0,NNW,23.0,-,N/A,,Clear,340,2013-08-06 12:50:00
4:20 PM,84.2,60.8,45,29.80,-9999.0,NNW,20.7,-,N/A,,Clear,340,2013-08-06 13:20:00
4:50 PM,82.4,59.0,45,29.80,-9999.0,North,23.0,-,N/A,,Clear,350,2013-08-06 13:50:00
5:20 PM,82.4,59.0,45,29.80,-9999.0,North,23.0,-,N/A,,Clear,350,2013-08-06 14:20:00
5:50 PM,80.6,62.6,54,29.80,-9999.0,North,19.6,-,N/A,,Clear,350,2013-08-06 14:50:00
6:20 PM,80.6,62.6,54,29.80,-9999.0,NNW,17.3,-,N/A,,Clear,340,2013-08-06 15:20:00
6:50 PM,80.6,60.8,51,29.77,-9999.0,NNW,19.6,-,N/A,,Clear,330,2013-08-06 15:50:00
7:20 PM,80.6,60.8,51,29.77,-9999.0,NNW,17.3,-,N/A,,Clear,330,2013-08-06 16:20:00
7:50 PM,78.8,62.6,57,29.77,-9999.0,NNW,17.3,-,N/A,,Clear,330,2013-08-06 16:50:00
8:20 PM,78.8,60.8,54,29.80,-9999.0,NNW,15.0,-,N/A,,Clear,330,2013-08-06 17:20:00
8:50 PM,78.8,60.8,54,29.80,-9999.0,NW,13.8,-,N/A,,Clear,310,2013-08-06 17:50:00
9:20 PM,78.8,59.0,51,29.80,-9999.0,NW,11.5,-,N/A,,Clear,320,2013-08-06 18:20:00
9:50 PM,78.8,59.0,51,29.80,-9999.0,NW,13.8,-,N/A,,Clear,320,2013-08-06 18:50:00
10:20 PM,78.8,57.2,47,29.80,-9999.0,NW,13.8,-,N/A,,Clear,310,2013-08-06 19:20:00
10:50 PM,78.8,59.0,51,29.80,-9999.0,WNW,13.8,-,N/A,,Clear,300,2013-08-06 19:50:00
11:20 PM,78.8,57.2,47,29.80,-9999.0,WNW,8.1,-,N/A,,Clear,290,2013-08-06 20:20:00
11:50 PM,78.8,57.2,47,29.80,-9999.0,NW,8.1,-,N/A,,Clear,310,2013-08-06 20:50:00